TimeCDT,TemperatureF,Dew PointF,Humidity,Sea Level PressureIn,VisibilityMPH,Wind Direction,Wind SpeedMPH,Gust SpeedMPH,PrecipitationIn,Events,Conditions,WindDirDegrees,DateUTC
12:15 AM,42.8,39.2,87,29.77,10.0,North,3.5,-,N/A,,Scattered Clouds,10,2013-10-06 05:15:00
12:35 AM,42.8,41.0,93,29.76,10.0,Calm,Calm,-,N/A,,Mostly Cloudy,0,2013-10-06 05:35:00
12:55 AM,44.6,41.0,87,29.76,10.0,Calm,Calm,-,N/A,,Overcast,0,2013-10-06 05:55:00
1:15 AM,44.6,42.8,93,29.76,10.0,Calm,Calm,-,N/A,,Overcast,0,2013-10-06 06:15:00
1:35 AM,44.6,42.8,93,29.75,10.0,Calm,Calm,-,N/A,,Overcast,0,2013-10-06 06:35:00
1:55 AM,46.4,44.6,93,29.76,10.0,NW,4.6,-,N/A,,Overcast,310,2013-10-06 06:55:00
2:15 AM,46.4,44.6,93,29.75,10.0,WNW,3.5,-,N/A,,Overcast,300,2013-10-06 07:15:00
2:35 AM,46.4,44.6,93,29.74,10.0,WNW,3.5,-,N/A,,Overcast,290,2013-10-06 07:35:00
2:55 AM,48.2,44.6,87,29.74,10.0,Calm,Calm,-,N/A,,Overcast,0,2013-10-06 07:55:00
3:16 AM,46.4,44.6,93,29.74,10.0,Calm,Calm,-,N/A,,Overcast,0,2013-10-06 08:16:00
3:35 AM,48.2,44.6,87,29.73,10.0,Calm,Calm,-,N/A,,Overcast,0,2013-10-06 08:35:00
3:55 AM,46.4,44.6,93,29.73,10.0,West,3.5,-,N/A,,Overcast,260,2013-10-06 08:55:00
4:16 AM,48.2,46.4,93,29.73,10.0,WNW,6.9,-,N/A,,Overcast,300,2013-10-06 09:16:00
4:35 AM,48.2,46.4,93,29.72,7.0,WNW,6.9,-,N/A,,Overcast,300,2013-10-06 09:35:00
4:55 AM,48.2,46.4,93,29.72,4.0,WNW,8.1,-,N/A,,Drizzle,300,2013-10-06 09:55:00
5:16 AM,48.2,46.4,93,29.72,5.0,NW,5.8,-,N/A,,Drizzle,310,2013-10-06 10:16:00
5:35 AM,48.2,46.4,93,29.72,7.0,NNW,4.6,-,N/A,,Light Drizzle,330,2013-10-06 10:35:00
5:55 AM,50.0,46.4,87,29.73,10.0,NW,6.9,-,N/A,,Overcast,310,2013-10-06 10:55:00
6:15 AM,50.0,48.2,94,29.72,10.0,NNW,8.1,-,N/A,,Overcast,330,2013-10-06 11:15:00
6:35 AM,50.0,46.4,87,29.73,10.0,NNW,11.5,-,N/A,,Overcast,340,2013-10-06 11:35:00
6:55 AM,50.0,46.4,87,29.73,10.0,North,8.1,-,N/A,,Overcast,350,2013-10-06 11:55:00
7:15 AM,50.0,46.4,87,29.74,10.0,North,9.2,-,N/A,,Overcast,350,2013-10-06 12:15:00
7:35 AM,50.0,46.4,87,29.74,10.0,North,11.5,-,N/A,,Overcast,350,2013-10-06 12:35:00
7:55 AM,50.0,46.4,87,29.74,4.0,North,10.4,-,0.01,,Drizzle,360,2013-10-06 12:55:00
8:15 AM,50.0,46.4,87,29.75,10.0,North,10.4,-,N/A,,Overcast,350,2013-10-06 13:15:00
8:35 AM,50.0,46.4,87,29.76,10.0,North,11.5,19.6,N/A,,Overcast,350,2013-10-06 13:35:00
8:55 AM,50.0,46.4,87,29.76,7.0,North,15.0,-,N/A,,Drizzle,350,2013-10-06 13:55:00
9:15 AM,48.2,46.4,93,29.77,4.0,North,12.7,17.3,N/A,Rain,Light Rain,350,2013-10-06 14:15:00
9:35 AM,48.2,44.6,87,29.76,7.0,North,11.5,19.6,N/A,,Overcast,360,2013-10-06 14:35:00
9:55 AM,48.2,46.4,93,29.77,10.0,North,10.4,-,N/A,Rain,Rain,360,2013-10-06 14:55:00
10:15 AM,48.2,46.4,93,29.77,10.0,North,12.7,-,N/A,Rain,Light Rain,350,2013-10-06 15:15:00
10:35 AM,48.2,44.6,87,29.77,10.0,NNW,13.8,-,0.01,Rain,Light Rain,340,2013-10-06 15:35:00
10:55 AM,48.2,46.4,93,29.77,10.0,NNW,12.7,18.4,0.02,Rain,Light Rain,340,2013-10-06 15:55:00
11:15 AM,48.2,46.4,93,29.78,7.0,NNW,15.0,20.7,N/A,Rain,Rain,340,2013-10-06 16:15:00
11:35 AM,48.2,46.4,93,29.78,10.0,NNW,11.5,18.4,0.02,Rain,Light Rain,340,2013-10-06 16:35:00
11:55 AM,48.2,46.4,93,29.79,10.0,NNW,15.0,20.7,0.03,Rain,Light Rain,340,2013-10-06 16:55:00
12:15 PM,48.2,46.4,93,29.79,5.0,North,16.1,25.3,0.02,Rain,Rain,350,2013-10-06 17:15:00
12:35 PM,48.2,46.4,93,29.80,10.0,North,17.3,25.3,0.03,Rain,Light Rain,350,2013-10-06 17:35:00
12:55 PM,48.2,46.4,93,29.80,10.0,North,17.3,21.9,0.04,Rain,Light Rain,350,2013-10-06 17:55:00
1:15 PM,48.2,44.6,87,29.80,10.0,NNW,16.1,19.6,0.02,Rain,Light Rain,340,2013-10-06 18:15:00
1:35 PM,48.2,44.6,87,29.80,5.0,NNW,15.0,20.7,0.03,Rain,Rain,340,2013-10-06 18:35:00
1:56 PM,48.2,46.4,93,29.80,4.0,NNW,15.0,-,N/A,Rain,Rain,340,2013-10-06 18:56:00
2:15 PM,48.2,46.4,93,29.80,3.0,NNW,16.1,19.6,0.01,Rain,Rain,330,2013-10-06 19:15:00
2:35 PM,48.2,46.4,93,29.80,4.0,North,15.0,-,0.04,Rain,Rain,350,2013-10-06 19:35:00
2:55 PM,48.2,46.4,93,29.81,4.0,NNW,12.7,18.4,0.05,Rain,Light Rain,340,2013-10-06 19:55:00
3:15 PM,50.0,46.4,87,29.81,10.0,NNW,12.7,19.6,N/A,,Overcast,340,2013-10-06 20:15:00
3:35 PM,50.0,46.4,87,29.81,10.0,NNW,11.5,-,N/A,,Overcast,340,2013-10-06 20:35:00
3:55 PM,51.8,46.4,82,29.81,10.0,NNW,11.5,-,N/A,,Overcast,340,2013-10-06 20:55:00
4:15 PM,51.8,46.4,82,29.81,10.0,NNW,11.5,-,N/A,,Mostly Cloudy,330,2013-10-06 21:15:00
4:35 PM,53.6,48.2,82,29.82,10.0,NNW,12.7,17.3,N/A,,Scattered Clouds,340,2013-10-06 21:35:00
4:55 PM,55.4,48.2,77,29.82,10.0,North,10.4,-,N/A,,Mostly Cloudy,350,2013-10-06 21:55:00
5:15 PM,55.4,46.4,72,29.83,10.0,NNW,11.5,-,N/A,,Scattered Clouds,330,2013-10-06 22:15:00
5:35 PM,55.4,46.4,72,29.83,10.0,NNW,10.4,-,N/A,,Clear,330,2013-10-06 22:35:00
5:55 PM,55.4,42.8,63,29.84,10.0,NNW,15.0,20.7,N/A,,Clear,330,2013-10-06 22:55:00
6:15 PM,55.4,42.8,63,29.85,10.0,NNW,11.5,-,N/A,,Clear,330,2013-10-06 23:15:00
6:35 PM,53.6,42.8,67,29.85,10.0,NW,6.9,-,N/A,,Clear,310,2013-10-06 23:35:00
6:55 PM,51.8,42.8,71,29.86,10.0,NW,8.1,-,N/A,,Clear,310,2013-10-06 23:55:00
7:15 PM,51.8,42.8,71,29.87,10.0,WNW,10.4,-,N/A,,Clear,300,2013-10-07 00:15:00
7:35 PM,51.8,39.2,62,29.87,10.0,NW,10.4,-,N/A,,Clear,310,2013-10-07 00:35:00
7:55 PM,50.0,39.2,66,29.88,10.0,NW,9.2,-,N/A,,Clear,310,2013-10-07 00:55:00
8:15 PM,50.0,39.2,66,29.88,10.0,NW,11.5,-,N/A,,Clear,310,2013-10-07 01:15:00
8:35 PM,48.2,39.2,71,29.89,10.0,NW,10.4,-,N/A,,Clear,310,2013-10-07 01:35:00
8:55 PM,48.2,39.2,71,29.89,10.0,WNW,8.1,-,N/A,,Clear,300,2013-10-07 01:55:00
9:16 PM,48.2,39.2,71,29.89,10.0,WNW,8.1,-,N/A,,Clear,300,2013-10-07 02:16:00
9:35 PM,48.2,37.4,66,29.90,10.0,WNW,6.9,-,N/A,,Clear,300,2013-10-07 02:35:00
9:56 PM,46.4,37.4,71,29.90,10.0,WNW,3.5,-,N/A,,Clear,290,2013-10-07 02:56:00
10:15 PM,44.6,37.4,76,29.90,10.0,West,4.6,-,N/A,,Clear,280,2013-10-07 03:15:00
10:35 PM,44.6,37.4,76,29.90,10.0,West,5.8,-,N/A,,Clear,270,2013-10-07 03:35:00
10:55 PM,42.8,37.4,81,29.90,10.0,West,5.8,-,N/A,,Clear,270,2013-10-07 03:55:00
11:15 PM,44.6,37.4,76,29.90,10.0,West,6.9,-,N/A,,Clear,260,2013-10-07 04:15:00
11:35 PM,44.6,37.4,76,29.90,10.0,WSW,6.9,-,N/A,,Clear,250,2013-10-07 04:35:00
11:55 PM,44.6,37.4,76,29.89,10.0,West,4.6,-,N/A,,Mostly Cloudy,260,2013-10-07 04:55:00